Flag for Canada Weather past 2 weeks in Gander, Newfoundland and Labrador, Canada

Now
19 °F

Low level haze.


Feels Like: 3 °F
Forecast: N/A
Wind: 21 mph from West

Location: Gander Int. Airport

Current Time: Jan 26, 2015 at 5:36:12 PM

Latest Report: Jan 26, 2015 at 4:30 PM


Visibility: 20 mi

Pressure: 29.92 "Hg

Humidity: 58%

Dew point: 7 °F

Location of GanderLocation

Historic Weather in Gander — Graph

°F

Gander temperature yesterday

Maximum temperature yesterday: 45 °F (at 9:30 AM)
Minimum temperature yesterday: 28 °F (at 12:30 AM)
Average temperature yesterday: 34 °F

Past Weeks' High & Low Weather Summary

 TemperatureHumidityPressure
High45 °F (Jan 25, 9:30 AM)100% (Jan 12, 8:30 PM)30.47 "Hg (Jan 12, 8:30 PM)
Low1 °F (Jan 13, 7:30 PM)50% (Jan 26, 1:30 PM)28.63 "Hg (Jan 25, 11:30 AM)
Average22 °F85%29.87 "Hg
* Reported Jan 11 4:30 PM — Jan 26 4:30 PM, Gander, Weather by CustomWeather, © 2014

Note: Actual official high and low records may vary slightly from our data, if they occured in-between our weather recording intervals... More about our weather records

Advertising

Gander weather history for previous 24 hours

 ConditionsComfort  
Time TempWeatherWind HumidityBarometerVisibility
4:30 PM
Jan 26
19 °FLow level haze.21 mph58%29.92 "Hg20 mi
3:30 PM21 °FScattered clouds.21 mph54%29.86 "Hg20 mi
2:30 PM23 °FPartly sunny.23 mph50%29.80 "Hg20 mi
1:30 PM25 °FScattered clouds.28 mph50%29.74 "Hg20 mi
12:30 PM25 °FPartly sunny.26 mph54%29.70 "Hg20 mi
11:30 AM23 °FLow level haze.25 mph63%29.66 "Hg20 mi
10:30 AM23 °FLow level haze.25 mph63%29.63 "Hg20 mi
9:30 AM21 °FLow level haze.25 mph63%29.58 "Hg20 mi
8:30 AM19 °FLow level haze.21 mph68%29.54 "Hg20 mi
7:30 AM18 °FLow level haze.20 mph68%29.50 "Hg15 mi
6:30 AM19 °FLow level haze.23 mph63%29.46 "Hg15 mi
5:30 AM19 °FLow level haze.22 mph63%29.43 "Hg15 mi
4:30 AM23 °FSnow flurries. Mostly cloudy.24 mph74%29.35 "Hg12 mi
3:30 AM28 °FSnow flurries. Mostly cloudy.29 mph80%29.31 "Hg3 mi
2:33 AM30 °FSnow showers. Ice fog.20 mph86%29.28 "Hg1 mi
1:30 AM30 °FPassing clouds.17 mph80%29.27 "Hg20 mi
12:30 AM28 °FPassing clouds.16 mph80%29.27 "Hg20 mi
11:30 PM
Jan 25
30 °FPassing clouds.20 mph69%29.26 "Hg20 mi
10:30 PM30 °FPassing clouds.24 mph75%29.24 "Hg20 mi
9:30 PM30 °FPassing clouds.17 mph75%29.22 "Hg20 mi
8:30 PM30 °FPassing clouds.20 mph75%29.19 "Hg20 mi
7:30 PM32 °FPassing clouds.22 mph69%29.15 "Hg20 mi
6:30 PM32 °FPassing clouds.25 mph75%29.09 "Hg15 mi
5:30 PM34 °FPartly cloudy.21 mph75%29.06 "Hg15 mi
Weather by CustomWeather, © 2014

See weather overviewHow to use our weather pages